Regional Weather Roundup
Issued by NWS Binghamton, NY

Home | Current Version | Previous Version | Text Only | Print | Product List | Glossary On
Versions: 1 2 3 4 5 6 7 8 9 10 11 12 13 14 15 16 17 18 19 20 21 22 23 24 25 26
846
ASUS41 KBGM 221910
RWRBGM
RWRBGM
BINGHAMTON REGIONAL WEATHER ROUNDUP
NATIONAL WEATHER SERVICE BINGHAMTON NY
300 PM EDT FRI MAY 22 2015

Note: "fair" indicates few or no clouds below 12,000 feet with no
significant weather and/or obstructions to visibility.

* = Station(s) that does not report precipitation, such as rain,
snow, etc, also no thunder or fog.

!NYZ009-015>018-022>025-036-037-044>046-055>057-062-222000
...CENTRAL NEW YORK...

CITY           SKY/WX    TMP DP  RH WIND       PRES   REMARKS
BINGHAMTON     PTSUNNY   60  35  39 NW9G25    30.00R
CORTLAND       CLOUDY    55  36  47 NW8       30.04R
DANSVILLE      PTSUNNY   61  36  39 NW16G25   30.06R
ELMIRA         MOSUNNY   65  32  29 N17G25    30.00R
ITHACA         PTSUNNY   60  37  42 N15       30.03R
MONTICELLO     MOSUNNY   63  36  36 NW15G24   29.97R
NORWICH        PTSUNNY   57  28  33 N12G21    30.01R
ONEONTA        MOSUNNY   55  27  33 W10G21    29.99R
PENN YAN       PTSUNNY   58  37  45 N10G18    30.04R
ROME           PTSUNNY   58  30  34 W18G28    30.02R
SIDNEY         MOSUNNY   63  36  36 NW10G16   29.99R
SYRACUSE       MOSUNNY   60  31  33 W22G37    30.03R
$$

!PAZ038>040-043-044-047-048-072-222000
...NORTHEAST PENNSYLVANIA...

CITY           SKY/WX    TMP DP  RH WIND       PRES   REMARKS
HAZLETON       PTSUNNY   63  41  45 W9G18     30.02S
SCRANTON       CLOUDY    65  37  35 NW12      29.97R
$$
&&
KEY
WCI = WIND CHILL INDEX
VSB = VISIBILITY
HX  = HEAT INDEX
$$



USA.gov is the U.S. government's official web portal to all federal, state and local government web resources and services.